User: anonymous   Login
Location: Observatorio Las Palmas
(29.0667°N, 110.9333°W)
Time: 07:10:42
(UTC-07:00)
Language:

Skynet4D Del rocket - Orbit

View from above orbital plane
View from above orbital plane
View from above satellite
View from above satellite

Ground track
Ground track

The orbit data is extracted from the following two-line orbital elements,

1 25135U 98002B   16205.90945395  .00000112  00000-0 -24399-5 0  9990
2 25135  26.8864  95.0256 0356378 304.1581 142.3121 13.62335514923723
Epoch (UTC): 23 July 2016 21:49:36
Eccentricity: 0.0356378
inclination: 26.8864°
perigee height: 763 km
apogee height: 1291 km
right ascension of ascending node: 95.0256°
argument of perigee: 304.1581°
revolutions per day: 13.62335514
mean anomaly at epoch: 142.3121°
orbit number at epoch: 92372

The dashed part of the orbit path shows where the satellite is in the earth's shadow,  

DLR